Weather History for Binghamton, NY

Change the Weather History Date:

Thursday, October 25, 2012

  Actual Average Record
Temperature  
Mean Temperature 58 °F 46 °F  
Max Temperature 62 °F 54 °F 74 °F (1963)
Min Temperature 53 °F 38 °F 25 °F (1962)
Degree Days  
Heating Degree Days 7 19  
Month to date heating degree days 362 391  
Since 1 July heating degree days 576 648  
Cooling Degree Days 0 0  
Month to date cooling degree days 1 0  
Year to date cooling degree days 548 379  
Growing Degree Days 8 (Base 50)    
Moisture  
Dew Point 53 °F    
Average Humidity 90    
Maximum Humidity 100    
Minimum Humidity 80    
Precipitation  
Precipitation T in 0.11 in 1.82 in (1980)
Month to date precipitation 2.57 2.70  
Year to date precipitation 31.87 32.54  
Snow  
Snow 0.00 in 0.10 in 3.60 in (2005)
Month to date snowfall T 0.6  
Since 1 July snowfall T 0.6  
Since 1 September snowfall T 0.6  
Snow Depth 0.00 in    
Sea Level Pressure  
Sea Level Pressure 30.18 in    
Wind  
Wind Speed 9 mph (SSE)    
Max Wind Speed 15 mph    
Max Gust Speed 21 mph    
Visibility 4 miles    
Events Fog    
T = Trace of Precipitation, MM = Missing Value Source: NWS Daily Summary

Daily Weather History Graph

Daily Weather History Graph

Search for Another Location

Airport:

Trip Planner

Search our weather history database for the weather conditions in past years. The results will help you decide how hot, cold, wet, or windy it might be!

Date:

Astronomy

Oct. 25, 2012 Rise Set
Actual Time 7:28 AM EDT 6:06 PM EDT
Civil Twilight 7:00 AM EDT 6:34 PM EDT
Nautical Twilight 6:27 AM EDT 7:07 PM EDT
Astronomical Twilight 5:54 AM EDT 7:40 PM EDT
Moon 3:54 PM EDT (10/25) 3:19 AM EDT (10/25)
Length of Visible Light 11h 34m
Length of Day
10h 37m
Waxing Gibbous, 84% of the Moon is Illuminated
Oct 25
Waxing Gibbous
Oct 29
Full
Nov 6
Last Quarter
Nov 13
New
Nov 20
First Quarter

Hourly Weather History & Observations

Time (EDT) Temp. Dew Point Humidity Pressure Visibility Wind Dir Wind Speed Gust Speed Precip Events Conditions
12:53 AM 55.0 °F 54.0 °F 96% 30.16 in 0.2 mi SSE 5.8 mph - 0.00 in Fog Fog
1:11 AM 55.4 °F 53.6 °F 94% 30.16 in 0.8 mi SSE 5.8 mph - N/A   Mist
1:53 AM 55.0 °F 54.0 °F 96% 30.16 in 0.8 mi SSE 6.9 mph - 0.00 in   Mist
2:36 AM 55.4 °F 53.6 °F 94% 30.16 in 0.2 mi SE 5.8 mph - N/A Fog Fog
2:53 AM 54.0 °F 54.0 °F 100% 30.16 in 0.2 mi SE 6.9 mph - N/A Fog Fog
3:53 AM 54.0 °F 53.1 °F 97% 30.15 in 0.2 mi SE 5.8 mph - N/A Fog Fog
4:53 AM 54.0 °F 53.1 °F 97% 30.16 in 0.2 mi SSE 4.6 mph - N/A Fog Fog
5:23 AM 53.6 °F 53.6 °F 100% 30.17 in 0.2 mi SE 4.6 mph - N/A Fog Fog
5:53 AM 54.0 °F 53.1 °F 97% 30.16 in 0.2 mi SE 5.8 mph - N/A Fog Fog
6:53 AM 53.1 °F 53.1 °F 100% 30.17 in 0.2 mi SSE 6.9 mph - N/A Fog Fog
7:01 AM 53.6 °F 51.8 °F 94% 30.17 in 0.5 mi SSE 8.1 mph - N/A Fog Fog
7:14 AM 53.6 °F 51.8 °F 94% 30.17 in 0.2 mi SE 6.9 mph - N/A Fog Fog
7:53 AM 53.1 °F 52.0 °F 96% 30.18 in 0.2 mi SSE 9.2 mph - N/A Fog Fog
8:53 AM 53.6 °F 53.6 °F 100% 30.19 in 0.2 mi SE 5.8 mph - N/A Fog Fog
9:53 AM 54.0 °F 54.0 °F 100% 30.21 in 0.2 mi SE 8.1 mph - N/A Fog Fog
10:53 AM 55.0 °F 54.0 °F 96% 30.20 in 0.2 mi SE 11.5 mph - N/A Fog Fog
11:03 AM 55.4 °F 53.6 °F 94% 30.20 in 0.5 mi SE 9.2 mph - N/A Fog Fog
11:27 AM 55.4 °F 53.6 °F 94% 30.21 in 0.2 mi SSE 10.4 mph - N/A Fog Fog
11:43 AM 55.4 °F 53.6 °F 94% 30.21 in 0.8 mi SE 9.2 mph - N/A   Overcast
11:53 AM 55.0 °F 54.0 °F 96% 30.21 in 1.0 mi SSE 6.9 mph 16.1 mph N/A   Overcast
12:24 PM 55.4 °F 53.6 °F 94% 30.20 in 2.0 mi SSE 9.2 mph - N/A   Overcast
12:53 PM 55.9 °F 55.0 °F 97% 30.20 in 3.0 mi SSE 8.1 mph - N/A   Overcast
1:01 PM 55.4 °F 55.4 °F 100% 30.19 in 5.0 mi SSE 6.9 mph - N/A   Overcast
1:53 PM 59.0 °F 55.0 °F 87% 30.18 in 7.0 mi South 9.2 mph - N/A   Overcast
2:53 PM 60.1 °F 55.0 °F 83% 30.17 in 10.0 mi SE 10.4 mph - N/A   Scattered Clouds
3:53 PM 61.0 °F 55.0 °F 81% 30.16 in 10.0 mi SE 12.7 mph - N/A   Clear
4:53 PM 61.0 °F 55.0 °F 81% 30.16 in 10.0 mi SSE 10.4 mph - N/A   Clear
5:53 PM 59.0 °F 54.0 °F 83% 30.16 in 10.0 mi SSE 12.7 mph - N/A   Clear
6:53 PM 57.0 °F 53.1 °F 87% 30.17 in 10.0 mi SSE 10.4 mph - N/A   Partly Cloudy
7:10 PM 57.2 °F 53.6 °F 88% 30.17 in 10.0 mi South 11.5 mph - N/A   Mostly Cloudy
7:53 PM 57.0 °F 53.1 °F 87% 30.18 in 10.0 mi South 11.5 mph - N/A   Overcast
8:50 PM 55.4 °F 51.8 °F 88% 30.17 in 10.0 mi South 10.4 mph - N/A   Overcast
8:53 PM 55.4 °F 51.8 °F 88% 30.18 in 10.0 mi South 10.4 mph - N/A   Overcast
9:53 PM 55.0 °F 52.0 °F 89% 30.19 in 10.0 mi South 8.1 mph - N/A   Overcast
10:53 PM 55.0 °F 52.0 °F 89% 30.18 in 10.0 mi South 10.4 mph - N/A   Overcast
11:53 PM 55.0 °F 52.0 °F 89% 30.17 in 10.0 mi South 9.2 mph - N/A   Overcast